Worthington, MN

11:46 AM CDT on August 23, 2017 (GMT -0500)
Worthington Municipal

Weather History for KOTG - October, 2012

Change the Weather History Date:

Wednesday, October 10, 2012

  Actual Average Record
Temperature  
Mean Temperature 42 °F -  
Max Temperature 57 °F 59 °F 81 °F (1980)
Min Temperature 26 °F 39 °F 16 °F (1987)
Degree Days  
Heating Degree Days 24    
Moisture  
Dew Point 22 °F    
Average Humidity 47    
Maximum Humidity 74    
Minimum Humidity 23    
Precipitation  
Precipitation 0.00 in - - ()
Sea Level Pressure  
Sea Level Pressure 30.04 in    
Wind  
Wind Speed 11 mph (SW)    
Max Wind Speed 22 mph    
Max Gust Speed 31 mph    
Visibility 10 miles    
Events      
Averages and records for this station are not official NWS values.
T = Trace of Precipitation, MM = Missing Value Source: NWS Daily Summary

Daily Weather History Graph

Daily Weather History Graph

Search for Another Location

Airport or City:

Trip Planner

Search our weather history database for the weather conditions in past years. The results will help you decide how hot, cold, wet, or windy it might be!

Date:

Astronomy

Oct. 10, 2012 Rise Set
Actual Time 7:31 AM CDT 6:46 PM CDT
Civil Twilight 7:02 AM CDT 7:15 PM CDT
Nautical Twilight 6:29 AM CDT 7:48 PM CDT
Astronomical Twilight 5:55 AM CDT 8:21 PM CDT
Moon 1:59 AM CDT (10/10) 3:57 PM CDT (10/10)
Length of Visible Light 12h 12m
Length of Day
11h 15m
Waning Crescent, 27% of the Moon is Illuminated
Oct 10
Waning Crescent
Oct 15
New
Oct 21
First Quarter
Oct 29
Full
Nov 6
Last Quarter

Hourly Weather History & Observations

Time (CDT) Temp. Windchill Dew Point Humidity Pressure Visibility Wind Dir Wind Speed Gust Speed Precip Events Conditions
12:15 AM 30.2 °F 21.3 °F 19.4 °F 64% 30.05 in 10.0 mi West 10.4 mph - N/A   Scattered Clouds
12:35 AM 32.0 °F 24.2 °F 19.4 °F 60% 30.06 in 10.0 mi West 9.2 mph - N/A   Mostly Cloudy
12:55 AM 33.8 °F 26.4 °F 19.4 °F 56% 30.06 in 10.0 mi West 9.2 mph - N/A   Overcast
1:15 AM 33.8 °F 27.7 °F 19.4 °F 56% 30.06 in 10.0 mi WSW 6.9 mph - N/A   Overcast
1:35 AM 33.8 °F 27.0 °F 19.4 °F 56% 30.06 in 10.0 mi West 8.1 mph - N/A   Overcast
1:55 AM 33.8 °F 26.4 °F 19.4 °F 56% 30.06 in 10.0 mi West 9.2 mph - N/A   Overcast
2:15 AM 32.0 °F 24.8 °F 19.4 °F 60% 30.07 in 10.0 mi West 8.1 mph - N/A   Mostly Cloudy
2:35 AM 30.2 °F 22.6 °F 19.4 °F 64% 30.06 in 10.0 mi West 8.1 mph - N/A   Scattered Clouds
2:55 AM 30.2 °F 21.3 °F 19.4 °F 64% 30.06 in 10.0 mi West 10.4 mph - N/A   Mostly Cloudy
3:15 AM 30.2 °F 21.3 °F 17.6 °F 60% 30.06 in 10.0 mi West 10.4 mph - N/A   Scattered Clouds
3:35 AM 28.4 °F 19.1 °F 17.6 °F 64% 30.06 in 10.0 mi West 10.4 mph - N/A   Clear
3:55 AM 28.4 °F 19.1 °F 19.4 °F 69% 30.07 in 10.0 mi West 10.4 mph - N/A   Clear
4:15 AM 28.4 °F 19.1 °F 19.4 °F 69% 30.07 in 10.0 mi West 10.4 mph - N/A   Clear
4:35 AM 28.4 °F 19.1 °F 19.4 °F 69% 30.07 in 10.0 mi West 10.4 mph - N/A   Clear
4:55 AM 28.4 °F 21.2 °F 19.4 °F 69% 30.08 in 10.0 mi West 6.9 mph - N/A   Clear
5:15 AM 28.4 °F 20.4 °F 19.4 °F 69% 30.08 in 10.0 mi West 8.1 mph - N/A   Clear
5:35 AM 28.4 °F 19.7 °F 17.6 °F 64% 30.09 in 10.0 mi West 9.2 mph - N/A   Clear
5:55 AM 26.6 °F 19.1 °F 17.6 °F 69% 30.09 in 10.0 mi West 6.9 mph - N/A   Clear
6:15 AM 26.6 °F 17.5 °F 17.6 °F 69% 30.09 in 10.0 mi WSW 9.2 mph - N/A   Clear
6:35 AM 26.6 °F 17.5 °F 17.6 °F 69% 30.10 in 10.0 mi West 9.2 mph - N/A   Clear
6:55 AM 26.6 °F 16.8 °F 17.6 °F 69% 30.10 in 10.0 mi West 10.4 mph - N/A   Clear
7:15 AM 26.6 °F 16.8 °F 17.6 °F 69% 30.11 in 10.0 mi West 10.4 mph - N/A   Clear
7:35 AM 28.4 °F 19.1 °F 19.4 °F 69% 30.11 in 10.0 mi WSW 10.4 mph - N/A   Clear
7:55 AM 26.6 °F 16.8 °F 17.6 °F 69% 30.12 in 10.0 mi WSW 10.4 mph - N/A   Clear
8:15 AM 26.6 °F 20.0 °F 19.4 °F 74% 30.13 in 10.0 mi WSW 5.8 mph - N/A   Clear
8:35 AM 30.2 °F 25.4 °F 21.2 °F 69% 30.13 in 10.0 mi WSW 4.6 mph - N/A   Clear
8:55 AM 33.8 °F 25.8 °F 23.0 °F 65% 30.13 in 10.0 mi West 10.4 mph - N/A   Clear
9:15 AM 35.6 °F 29.2 °F 24.8 °F 65% 30.14 in 10.0 mi West 8.1 mph - N/A   Clear
9:35 AM 37.4 °F 30.8 °F 24.8 °F 60% 30.14 in 10.0 mi West 9.2 mph - N/A   Clear
9:55 AM 39.2 °F 32.5 °F 24.8 °F 56% 30.14 in 10.0 mi WSW 10.4 mph - N/A   Clear
10:15 AM 39.2 °F 33.0 °F 24.8 °F 56% 30.14 in 10.0 mi WSW 9.2 mph - N/A   Clear
10:35 AM 42.8 °F 36.6 °F 26.6 °F 53% 30.14 in 10.0 mi WSW 11.5 mph - N/A   Clear
10:55 AM 44.6 °F 37.8 °F 24.8 °F 46% 30.13 in 10.0 mi West 15.0 mph - N/A   Clear
11:15 AM 46.4 °F 39.8 °F 24.8 °F 43% 30.13 in 10.0 mi West 16.1 mph - N/A   Clear
11:55 AM 48.2 °F - 21.2 °F 34% 30.14 in 10.0 mi WSW 13.8 mph 19.6 mph N/A   Clear
12:15 PM 48.2 °F - 21.2 °F 34% 30.13 in 10.0 mi WSW 11.5 mph 19.6 mph N/A   Clear
12:55 PM 51.8 °F - 21.2 °F 30% 30.11 in 10.0 mi SW 18.4 mph 24.2 mph N/A   Clear
1:15 PM 51.8 °F - 19.4 °F 28% 30.10 in 10.0 mi WSW 12.7 mph 25.3 mph N/A   Clear
1:35 PM 51.8 °F - 19.4 °F 28% 30.09 in 10.0 mi SSW 16.1 mph - N/A   Clear
1:55 PM 53.6 °F - 19.4 °F 26% 30.07 in 10.0 mi West 17.3 mph 25.3 mph N/A   Clear
2:15 PM 53.6 °F - 19.4 °F 26% 30.06 in 10.0 mi SW 10.4 mph 23.0 mph N/A   Clear
2:35 PM 55.4 °F - 19.4 °F 25% 30.05 in 10.0 mi WSW 11.5 mph 19.6 mph N/A   Clear
2:55 PM 55.4 °F - 17.6 °F 23% 30.04 in 10.0 mi SW 13.8 mph 24.2 mph N/A   Clear
3:15 PM 57.2 °F - 19.4 °F 23% 30.03 in 10.0 mi WSW 15.0 mph 23.0 mph N/A   Clear
3:35 PM 55.4 °F - 19.4 °F 25% 30.02 in 10.0 mi SW 16.1 mph - N/A   Clear
3:55 PM 57.2 °F - 21.2 °F 25% 30.01 in 10.0 mi SW 15.0 mph 19.6 mph N/A   Clear
4:15 PM 57.2 °F - 21.2 °F 25% 30.00 in 10.0 mi WSW 17.3 mph 21.9 mph N/A   Clear
4:35 PM 57.2 °F - 21.2 °F 25% 29.99 in 10.0 mi SW 15.0 mph 21.9 mph N/A   Clear
4:55 PM 57.2 °F - 21.2 °F 25% 29.99 in 10.0 mi SW 12.7 mph 21.9 mph N/A   Clear
5:15 PM 57.2 °F - 23.0 °F 27% 29.98 in 10.0 mi SW 15.0 mph - N/A   Clear
5:35 PM 57.2 °F - 23.0 °F 27% 29.98 in 10.0 mi SW 18.4 mph 21.9 mph N/A   Clear
5:55 PM 57.2 °F - 24.8 °F 29% 29.97 in 10.0 mi SW 12.7 mph - N/A   Clear
6:15 PM 57.2 °F - 24.8 °F 29% 29.97 in 10.0 mi SW 12.7 mph - N/A   Clear
6:35 PM 55.4 °F - 24.8 °F 31% 29.96 in 10.0 mi SSW 9.2 mph - N/A   Clear
6:55 PM 55.4 °F - 24.8 °F 31% 29.95 in 10.0 mi SSW 9.2 mph - N/A   Clear
7:15 PM 53.6 °F - 24.8 °F 33% 29.95 in 10.0 mi South 8.1 mph - N/A   Clear
7:35 PM 51.8 °F - 24.8 °F 35% 29.95 in 10.0 mi South 10.4 mph - N/A   Clear
7:55 PM 50.0 °F - 24.8 °F 37% 29.95 in 10.0 mi South 9.2 mph - N/A   Clear
8:15 PM 50.0 °F - 24.8 °F 37% 29.94 in 10.0 mi South 10.4 mph - N/A   Clear
8:35 PM 48.2 °F - 24.8 °F 40% 29.94 in 10.0 mi South 10.4 mph - N/A   Clear
8:55 PM 48.2 °F - 26.6 °F 43% 29.93 in 10.0 mi South 11.5 mph - N/A   Clear
9:15 PM 48.2 °F - 26.6 °F 43% 29.92 in 10.0 mi South 13.8 mph - N/A   Clear
9:35 PM 50.0 °F - 26.6 °F 40% 29.92 in 10.0 mi South 16.1 mph - N/A   Clear
9:55 PM 50.0 °F - 26.6 °F 40% 29.91 in 10.0 mi South 15.0 mph - N/A   Clear
10:15 PM 50.0 °F - 26.6 °F 40% 29.90 in 10.0 mi South 17.3 mph 21.9 mph N/A   Clear
10:35 PM 50.0 °F - 26.6 °F 40% 29.90 in 10.0 mi SSW 18.4 mph 23.0 mph N/A   Clear
10:55 PM 50.0 °F - 26.6 °F 40% 29.89 in 10.0 mi SSW 17.3 mph 23.0 mph N/A   Clear
11:15 PM 51.8 °F - 26.6 °F 38% 29.89 in 10.0 mi SSW 19.6 mph 25.3 mph N/A   Clear
11:35 PM 51.8 °F - 26.6 °F 38% 29.89 in 10.0 mi SSW 21.9 mph 31.1 mph N/A   Clear
11:55 PM 51.8 °F - 26.6 °F 38% 29.88 in 10.0 mi SSW 21.9 mph 27.6 mph N/A   Clear